INTELSAT 30 (IS-30) (40271 NORAD) Tracking and Keplerian Element Data

This shows tracking and keplerian element data for the satellite.

Feedback or suggestion? Click here.




ElementValue
Catalog40271
NameINTELSAT 30 (IS-30)
Epoch Orbit1583
Epoch Day51.56126378
Epoch Year2019
RAAN95.9044
Inclination0.0112
Eccentricity0.0001542
Argument of Perigee11.6857
Mean Anonmoly149.5683
Mean Motion1.00269592
Decay Rate-1.72E-06
L11 40271U 14062A 19051.56126378 -.00000172 00000-0 00000-0 0 9992
L22 40271 0.0112 95.9044 0001542 11.6857 149.5683 1.00269592 15838

Live tracking and technical data element details for INTELSAT 30 (IS-30) (NORAD 40271). INTELSAT 30 (IS-30) can be tracked NOW for your location showing map with azimuth and elevation plus other details from your city location.

Track the satellite on the map from your city or location and see movement details for azimuth, elevation, latitude, longitude, range, height, and movement on the map or in text.







IsCatalogInMostPopularTable: catalog: 40271, numindb: 190
Update: records affected: 1



GetName: 40271 INTELSAT 30 (IS-30)

Hit Count: updated at: Thu, 21 Feb 2019 11:36:14 GMT